SCP
10 8 5 3 2 2 3 3 3 2 2 2 1 1 1 2 2 2 1 1 1 1 1 1 1 1 1 1 1 1 1 1 1 1 1 1 2 2 2 2 2 2 2
6 5 3 2 2 2 3 3 3 2 2 2 2 1 1 1 2 2 1 1 1 1 1 1 1 1 1 1 1 1 1 1 1 1 1 1 2 2 2 2 2 2 1
2 2 2 2 2 2 2 3 3 2 2 2 2 1 1 1 2 2 2 1 1 1 1 1 1 1 1 1 1 1 1 1 1 1 1 1 1 1 1 2 2 2 2
2 2 1 1 1 2 2 2 2 2 2 2 1 1 1 1 2 2 2 2 2 2 1 1 1 1 1 1 1 1 1 1 1 1 1 1 1 1 1 1 2 2 2
2 1 1 2 1 1 1 2 2 2 1 1 1 1 1 1 2 2 2 2 2 2 1 1 1 1 1 1 1 1 1 1 1 1 1 1 1 1 1 1 1 2 2
2 2 2 2 1 1 1 1 1 1 1 1 1 1 1 1 1 1 1 1 1 1 1 1 1 1 0 0 0 0 0 1 1 1 1 1 1 1 1 1 1 1 1
2 2 2 2 2 1 1 1 1 1 1 1 1 1 1 1 0 0 0 1 1 1 1 1 1 1 1 1 0 0 0 0 0 1 1 1 1 1 1 1 1 1 1
1 1 2 2 2 2 1 1 1 1 1 1 1 1 1 1 0 0 0 0 1 1 1 1 1 1 1 1 1 1 1 1 0 1 1 1 1 1 1 1 1 1 1
1 1 1 1 1 1 1 1 1 1 1 1 1 1 1 1 0 0 0 0 1 1 1 1 1 1 1 0 1 1 1 1 1 0 1 1 1 1 1 1 1 1 1
1 1 1 1 1 1 1 2 2 2 2 2 1 1 1 1 0 0 0 1 1 1 1 1 1 1 0 0 0 1 1 1 1 1 1 1 1 1 1 1 1 1 1
1 1 1 1 1 1 1 2 2 2 2 2 2 1 1 1 0 0 0 0 1 1 1 1 1 0 0 0 0 1 1 1 1 1 1 1 1 1 1 1 1 1 1
1 1 1 1 1 1 1 1 2 2 2 2 2 2 1 1 1 0 0 0 0 1 1 1 1 0 0 0 0 0 0 0 1 1 1 1 1 1 1 1 1 1 1
1 1 1 1 1 1 1 1 1 2 1 1 1 1 1 1 1 0 0 0 0 1 1 1 0 0 0 0 0 0 0 1 1 1 1 1 1 1 2 2 1 1 1
2 2 1 1 1 1 1 1 1 1 1 1 1 1 1 1 1 1 0 0 0 0 1 0 0 0 0 0 0 0 1 1 1 1 1 1 1 2 2 2 1 1 1
2 2 2 1 1 1 1 1 1 1 1 1 1 1 1 1 1 0 0 0 0 0 0 0 1 1 1 1 1 1 1 1 1 1 1 2 2 1 1 1 1 1 1
2 2 2 1 1 1 1 1 1 1 0 0 0 0 0 0 0 0 0 0 0 0 0 1 1 1 1 1 1 1 1 1 1 1 1 1 2 2 1 1 1 1 1
2 2 1 1 1 1 1 1 1 0 0 0 0 0 0 0 0 0 0 0 0 0 0 0 1 1 1 1 1 0 0 0 1 1 1 1 1 1 1 1 1 1 1
1 1 1 1 1 1 1 1 1 0 0 0 0 0 0 0 0 0 0 0 0 0 0 0 1 1 1 1 1 1 0 0 1 1 1 1 1 1 1 1 1 1 1
1 1 1 1 1 1 1 1 1 0 0 0 0 0 0 0 0 0 0 0 0 0 0 0 1 1 1 1 1 1 1 1 1 1 1 1 1 1 2 2 2 2 2
1 1 1 1 1 1 1 1 0 0 0 0 0 0 0 0 0 0 0 0 0 0 0 1 1 1 1 0 0 1 1 1 1 1 1 1 1 1 2 2 2 2 2
1 1 1 1 1 1 0 0 0 0 0 0 0 0 0 0 0 0 0 0 0 0 0 0 1 1 1 1 1 1 1 1 1 1 1 1 1 1 1 1 1 2 2
1 1 1 1 0 0 0 0 0 0 0 0 0 0 0 0 0 0 0 0 0 0 0 0 0 1 1 1 1 1 1 1 1 1 1 1 1 1 1 1 1 1 1
1 1 0 0 0 0 0 0 0 0 0 0 0 0 0 0 0 0 0 0 0 0 0 0 0 1 1 1 1 1 1 1 1 1 1 1 1 1 1 1 1 1 1
0 0 0 0 0 0 0 0 0 0 0 0 0 0 0 0 0 0 0 0 1 1 0 0 0 0 1 1 1 1 1 1 1 1 1 1 1 1 1 1 1 1 1
1 1 1 1 1 1 0 0 0 0 0 0 0 0 0 0 0 0 0 0 0 0 0 0 0 0 0 0 0 0 0 0 0 0 0 0 0 0 0 0 0 0 0
1 1 1 1 1 1 1 0 0 0 0 0 0 0 0 0 0 0 0 0 0 0 0 0 0 0 0 0 0 0 0 0 0 0 0 0 0 0 0 0 0 0 0
Wind_Speed
1 1 2 2 3 3 4 4 4 4 4 5 6 6 6 7 7 7 8 7 8 8 7 8 9 8 7 6 6 6 7 7 7 6 5 4 5 6 5 6 7 8 7
1 1 1 2 2 4 4 4 4 4 5 5 5 6 6 7 7 8 8 8 8 8 8 8 9 7 8 7 6 7 7 7 8 8 6 5 6 6 6 7 7 7 7
0 1 1 2 3 3 4 4 4 4 5 5 6 6 6 7 7 8 8 9 9 9 8 8 8 8 8 7 7 7 7 6 6 7 7 5 6 6 6 8 8 6 8
1 2 2 2 3 3 4 4 4 4 5 5 6 6 6 7 8 8 8 9 9 8 8 8 8 8 8 7 7 7 7 7 6 7 7 6 6 6 6 7 6 6 6
1 2 2 2 2 3 3 4 4 4 5 5 5 6 6 6 6 6 7 8 7 7 7 7 7 7 7 6 6 7 7 7 7 7 7 6 6 5 6 6 6 5 6
1 2 2 2 2 3 3 3 4 5 5 5 5 5 6 5 1 3 6 7 7 7 6 7 7 8 8 8 9 9 9 9 9 8 7 7 7 7 6 6 6 6 6
1 2 2 2 3 3 4 4 4 4 5 5 5 5 5 3 1 3 6 7 7 6 7 7 7 6 6 8 8 10 11 12 12 10 10 9 8 7 7 8 7 7 6
1 2 2 2 3 4 4 4 4 4 5 5 5 6 5 3 3 4 5 7 6 6 7 7 7 7 6 6 7 8 9 9 9 10 9 9 8 7 7 8 7 7 7
2 3 3 3 4 4 4 5 5 5 5 6 6 5 5 4 3 5 5 5 5 7 7 7 7 7 4 5 7 8 8 7 8 8 8 8 7 8 7 7 7 7 6
3 3 4 4 4 5 5 5 5 5 6 6 5 4 5 4 3 4 6 5 5 5 5 6 7 7 5 6 7 7 8 7 7 6 7 7 8 9 10 9 8 7 6
3 4 4 4 5 5 5 5 5 6 6 6 6 5 5 4 4 5 5 5 5 5 4 4 3 5 6 7 7 7 8 7 7 7 6 6 7 7 8 8 8 7 7
3 4 4 5 6 5 5 5 5 6 6 6 5 5 4 3 4 4 6 7 6 5 5 4 2 3 5 7 7 7 7 7 6 6 6 6 6 6 5 6 6 7 7
3 4 4 5 5 5 6 6 5 5 5 5 4 4 3 2 2 6 7 7 7 6 5 3 3 4 5 7 8 8 7 6 6 6 6 5 5 5 4 4 5 5 6
4 4 4 5 5 5 5 5 5 5 5 5 5 4 4 3 2 2 2 4 6 6 5 4 6 8 8 7 6 6 6 5 5 5 5 4 4 4 4 4 4 4 4
4 4 5 5 5 5 5 4 5 4 4 5 6 5 5 4 3 4 4 4 4 4 4 5 5 5 5 5 5 5 5 5 5 5 4 4 4 5 4 4 4 4 5
4 5 4 5 4 5 5 4 2 3 2 4 5 6 4 3 3 4 5 5 5 5 6 6 6 5 5 5 5 5 5 5 5 5 5 5 5 4 4 4 4 5 5
5 5 5 5 5 5 5 5 4 2 4 5 5 5 6 5 5 5 6 6 7 6 6 6 5 5 5 5 4 4 4 4 4 4 5 5 4 4 4 4 5 5 5
5 4 5 5 5 5 5 6 5 5 4 3 4 6 7 7 7 7 6 5 6 6 6 6 5 5 5 5 4 4 4 4 4 4 5 4 4 4 5 4 4 5 5
5 5 4 5 6 5 5 6 6 6 5 4 4 3 6 7 8 8 7 6 6 5 5 5 5 5 4 4 4 4 4 4 4 4 4 4 4 5 5 5 5 5 5
4 3 5 6 6 6 5 5 5 5 5 5 5 5 3 4 5 3 4 5 6 6 5 5 5 5 4 5 4 4 5 4 4 5 4 4 4 5 5 6 5 5 5
5 3 4 6 5 5 5 6 5 5 5 5 5 4 4 6 6 5 5 5 6 6 5 5 5 5 4 4 4 4 5 4 4 4 4 4 4 5 5 5 5 5 4
5 5 4 5 5 4 5 6 6 5 5 6 5 3 3 6 5 5 5 5 5 5 5 5 5 4 4 4 4 4 4 4 4 4 4 4 4 4 4 4 4 4 4
6 5 5 4 4 5 5 5 5 5 5 5 5 5 5 5 5 5 5 5 5 5 5 5 5 4 3 3 3 4 4 4 3 4 4 4 4 4 4 4 5 5 5
5 5 5 5 4 5 5 5 5 5 5 5 5 5 5 5 5 6 6 5 5 5 4 4 4 5 5 3 3 3 2 2 3 3 5 5 5 4 4 5 5 6 5
5 5 5 5 5 5 5 5 5 5 6 6 5 6 6 6 5 5 4 4 5 5 5 5 4 4 5 5 3 3 2 2 2 3 4 5 5 5 5 5 5 5 5
5 5 5 5 4 5 5 5 5 5 5 5 6 6 6 5 5 5 4 4 4 5 5 4 4 4 5 4 2 1 0 0 1 3 4 4 5 4 4 4 5 5 6
Wind_Direction
219 233 252 258 254 250 247 243 242 246 248 248 249 250 245 241 239 235 241 242 242 243 243 242 241 246 245 243 243 246 247 252 259 258 256 243 234 243 235 238 236 233 223
201 226 252 259 260 259 256 252 249 251 250 251 252 251 250 247 242 239 241 242 242 243 243 245 244 237 236 244 247 250 251 251 253 256 254 250 242 241 240 243 243 238 238
239 265 267 265 261 263 268 266 262 258 257 258 255 252 253 249 243 242 243 244 243 243 243 244 244 242 239 241 247 253 255 253 253 253 253 253 249 240 238 242 242 241 244
291 288 283 278 278 276 276 271 266 262 259 259 259 258 254 252 250 248 248 247 244 242 241 242 242 240 242 245 246 250 253 257 253 252 251 248 244 237 237 239 240 235 245
275 280 280 277 278 282 281 276 274 273 265 264 264 262 259 253 251 253 250 245 241 241 241 243 244 241 243 246 253 253 252 251 251 251 250 249 244 237 241 244 249 249 243
279 294 302 299 283 281 279 280 280 278 277 270 265 265 264 268 290 262 261 253 250 248 247 248 245 232 229 225 237 245 251 250 250 253 252 250 249 248 246 248 252 248 251
305 308 312 302 293 289 286 283 280 280 277 269 268 267 267 274 236 238 247 256 253 251 250 251 254 249 240 244 232 233 241 243 243 250 253 252 250 245 246 247 243 248 257
315 316 314 303 304 305 296 289 288 285 281 275 269 268 264 257 206 226 242 246 254 253 252 251 251 253 249 252 248 245 246 244 239 242 250 252 251 254 248 248 247 248 253
308 300 304 306 305 302 301 302 298 290 285 280 272 267 265 256 214 220 241 249 249 252 252 248 246 248 230 233 246 249 252 253 241 239 243 251 251 246 244 243 237 237 243
301 303 310 307 300 296 299 298 298 288 284 282 282 279 271 266 220 218 236 254 258 257 250 244 229 233 223 219 240 246 249 252 257 248 233 234 238 235 222 229 237 236 241
304 306 311 309 297 292 293 290 290 285 285 283 282 273 263 258 218 209 229 255 267 266 264 255 236 180 206 223 238 250 253 258 256 252 246 240 235 233 225 222 231 237 240
302 306 312 306 301 306 298 288 287 286 277 268 265 267 258 237 222 202 208 233 264 271 272 271 255 177 219 233 239 248 246 247 248 244 243 241 237 234 232 230 229 235 243
299 304 305 304 302 299 295 292 286 278 279 285 284 283 284 275 201 193 205 221 239 254 275 292 274 236 241 241 236 235 234 238 240 240 240 241 245 242 233 228 228 228 235
294 298 298 297 297 299 296 293 296 299 298 301 299 296 294 287 292 274 242 232 225 237 257 255 233 234 239 248 243 228 231 239 241 242 245 247 246 236 226 221 220 218 225
288 289 291 293 299 296 293 302 299 314 321 302 302 301 297 297 333 342 305 289 288 289 282 263 257 253 244 241 242 240 238 230 228 236 240 243 238 232 228 224 219 220 225
281 286 289 289 296 296 296 293 275 259 250 254 272 285 293 292 287 278 274 273 271 266 263 258 260 258 255 256 256 253 243 236 227 227 230 235 235 233 232 225 222 224 224
289 292 294 297 298 297 300 302 302 274 223 233 242 246 253 266 273 268 257 260 257 244 245 256 261 262 261 259 256 257 254 247 236 229 230 231 235 236 234 227 226 228 227
283 278 280 291 296 300 303 303 303 303 298 282 235 222 228 238 248 251 242 246 248 231 246 258 266 264 260 260 259 261 257 249 238 236 234 233 232 235 235 231 228 229 231
285 293 303 305 297 300 301 300 300 299 296 296 292 242 218 228 230 234 224 247 266 266 262 262 264 262 263 266 266 265 263 257 250 244 239 236 234 234 232 230 229 222 229
273 274 283 292 295 299 300 301 303 300 297 294 292 298 301 289 283 272 253 268 272 270 269 269 267 263 260 260 258 257 256 252 245 240 237 238 237 234 232 232 232 228 228
288 276 250 274 290 301 304 303 302 301 300 297 296 313 320 296 293 293 287 284 283 281 279 276 274 269 265 267 264 260 259 255 247 243 240 238 236 235 232 229 229 230 233
288 291 294 300 305 306 307 303 301 298 301 302 300 290 252 274 296 302 299 296 293 290 288 282 278 275 276 273 275 270 262 256 254 247 238 235 234 236 233 231 233 233 228
284 290 290 291 296 298 287 294 301 304 307 306 307 308 298 297 300 300 299 299 298 294 290 281 276 278 283 280 278 271 267 262 255 252 243 236 233 230 227 229 232 234 231
287 288 292 296 292 294 297 299 298 299 303 303 303 306 305 304 300 301 301 299 297 295 294 292 288 291 292 287 280 279 284 287 276 257 246 240 236 232 229 231 233 232 231
286 289 289 288 291 293 293 296 299 299 302 304 306 305 303 302 298 295 297 299 300 297 298 294 285 281 279 280 284 299 351 349 307 283 257 246 240 238 234 230 233 236 235
294 295 291 289 287 288 291 294 297 298 300 304 303 301 299 299 301 302 301 299 300 300 301 296 291 288 282 272 275 311 9 327 290 279 265 251 244 239 238 235 235 235 235